Terminal Aerodrome Forecast
Issued by NWS Rapid City, SD

Home | Current Version | Previous Version | Graphics & Text | Print | Product List | Glossary On
Versions: 1 2 3 4 5 6 7 8 9 10 11 12 13 14 15 16 17 18 19 20 21 22
000
FTUS43 KUNR 260657 AAA
TAFRAP
TAF AMD
KRAP 260657Z 2607/2706 34014KT P6SM -SHRA OVC010
     FM260900 11010KT 5SM -SHRA BR SCT004 BKN008 OVC010
     FM261800 14013KT P6SM -SHRA SCT025 OVC050=

USA.gov is the U.S. government's official web portal to all federal, state and local government web resources and services.